Simultaneous Nadir Overpasses (SNOs) Predictions

Prediction of SNOs between AQUA and METOP-A Satellite Orbit:

Table of predicted SNOs for the next 14.0 days since TLE Epoch: 7/13/2013
Index Date (AQUA) Time (AQUA) Lat,Lon (AQUA) SZA (AQUA ) Date (METOP-A) Time (METOP-A) Lat,Lon (METOP-A) SZA (METOP-A ) Distance(km) Time Diff (sec)
1 07/14/2013 08:24:46 73.86, 48.07 52.29 07/14/2013 08:24:16 73.84, 47.98 52.28 3.36 30
2 07/14/2013 09:14:13 -73.95,-144.49 127.61 07/14/2013 09:14:56 -73.94,-144.44 127.62 1.77 43
3 07/17/2013 03:09:20 -73.25, -51.83 127.92 07/17/2013 03:08:13 -73.24, -54.33 127.80 80.24 67
4 07/17/2013 03:59:00 73.89, 114.45 52.78 07/17/2013 03:58:40 73.86, 114.43 52.75 3.28 20
5 07/17/2013 04:48:26 -73.92, -77.99 127.18 07/17/2013 04:49:21 -73.92, -78.10 127.19 3.47 55
6 07/19/2013 22:43:41 -73.70, 13.66 126.93 07/19/2013 22:42:29 -73.61, 12.91 126.98 25.74 72
7 07/19/2013 23:33:12 73.87,-179.09 53.27 07/19/2013 23:33:03 73.87,-179.13 53.27 1.43 9
8 07/20/2013 00:22:39 -73.96, -11.63 126.64 07/20/2013 00:23:44 -73.94, -11.65 126.67 2.52 65
9 07/22/2013 18:17:56 -73.80, 79.89 126.27 07/22/2013 18:16:49 -73.82, 79.81 126.24 3.20 67
10 07/22/2013 19:07:25 73.88,-112.65 53.82 07/22/2013 19:07:27 73.88,-112.70 53.83 1.78 2
11 07/22/2013 19:56:54 -74.06, 54.59 125.98 07/22/2013 19:58:06 -74.05, 55.03 126.02 13.47 72
12 07/25/2013 13:52:09 -73.81, 146.31 125.67 07/25/2013 13:51:13 -73.83, 146.25 125.63 3.26 56
13 07/25/2013 14:41:38 73.89, -46.24 54.43 07/25/2013 14:41:51 73.89, -46.27 54.43 1.14 13




NCC Satellite Simultaneous Nadir Overpasses (SNOs) Prediction Service
